Year,Month,Day,Hour,Minute,Value (Times are PST for temperature in C)
2015,07,25,00,00,14.20
2015,07,25,00,01,14.20
2015,07,25,00,02,14.20
2015,07,25,00,03,14.20
2015,07,25,00,04,14.20
2015,07,25,00,05,14.10
2015,07,25,00,06,14.10
2015,07,25,00,07,14.10
2015,07,25,00,08,14.10
2015,07,25,00,09,14.10
2015,07,25,00,10,14.10
2015,07,25,00,11,14.10
2015,07,25,00,12,14.10
2015,07,25,00,13,14.10
2015,07,25,00,14,14.10
2015,07,25,00,15,14.10
2015,07,25,00,16,14.10
2015,07,25,00,17,14.10
2015,07,25,00,18,14.10
2015,07,25,00,19,14.10
2015,07,25,00,20,14.10
2015,07,25,00,21,14.10
2015,07,25,00,22,14.10
2015,07,25,00,23,14.10
2015,07,25,00,24,14.10
2015,07,25,00,25,14.00
2015,07,25,00,26,14.00
2015,07,25,00,27,14.00
2015,07,25,00,28,14.00
2015,07,25,00,29,14.00
2015,07,25,00,30,14.10
2015,07,25,00,31,14.10
2015,07,25,00,32,14.10
2015,07,25,00,33,14.10
2015,07,25,00,34,14.10
2015,07,25,00,35,14.10
2015,07,25,00,36,14.10
2015,07,25,00,37,14.00
2015,07,25,00,38,14.00
2015,07,25,00,39,14.00
2015,07,25,00,40,14.00
2015,07,25,00,41,14.10
2015,07,25,00,42,14.10
2015,07,25,00,43,14.10
2015,07,25,00,44,14.10
2015,07,25,00,45,14.10
2015,07,25,00,46,14.10
2015,07,25,00,47,14.10
2015,07,25,00,48,14.10
2015,07,25,00,49,14.10
2015,07,25,00,50,14.00
2015,07,25,00,51,14.00
2015,07,25,00,52,13.90
2015,07,25,00,53,13.90
2015,07,25,00,54,13.90
2015,07,25,00,55,13.80
2015,07,25,00,56,13.80
2015,07,25,00,57,13.80
2015,07,25,00,58,13.70
2015,07,25,00,59,13.70
2015,07,25,01,00,13.70
2015,07,25,01,01,13.70
2015,07,25,01,02,13.70
2015,07,25,01,03,13.70
2015,07,25,01,04,13.70
2015,07,25,01,05,13.70
2015,07,25,01,06,13.70
2015,07,25,01,07,13.70
2015,07,25,01,08,13.70
2015,07,25,01,09,13.70
2015,07,25,01,10,13.70
2015,07,25,01,11,13.70
2015,07,25,01,12,13.70
2015,07,25,01,13,13.70
2015,07,25,01,14,13.60
2015,07,25,01,15,13.60
2015,07,25,01,16,13.60
2015,07,25,01,17,13.50
2015,07,25,01,18,13.50
2015,07,25,01,19,13.40
2015,07,25,01,20,13.40
2015,07,25,01,21,13.40
2015,07,25,01,22,13.30
2015,07,25,01,23,13.30
2015,07,25,01,24,13.30
2015,07,25,01,25,13.30
2015,07,25,01,26,13.30
2015,07,25,01,27,13.30
2015,07,25,01,28,13.20
2015,07,25,01,29,13.20
2015,07,25,01,30,13.20
2015,07,25,01,31,13.20
2015,07,25,01,32,13.20
2015,07,25,01,33,13.20
2015,07,25,01,34,13.30
2015,07,25,01,35,13.30
2015,07,25,01,36,13.30
2015,07,25,01,37,13.30
2015,07,25,01,38,13.30
2015,07,25,01,39,13.30
2015,07,25,01,40,13.30
2015,07,25,01,41,13.30
2015,07,25,01,42,13.20
2015,07,25,01,43,13.20
2015,07,25,01,44,13.20
2015,07,25,01,45,13.20
2015,07,25,01,46,13.20
2015,07,25,01,47,13.20
2015,07,25,01,48,13.20
2015,07,25,01,49,13.10
2015,07,25,01,50,13.10
2015,07,25,01,51,13.10
2015,07,25,01,52,13.10
2015,07,25,01,53,13.10
2015,07,25,01,54,13.10
2015,07,25,01,55,13.10
2015,07,25,01,56,13.10
2015,07,25,01,57,13.10
2015,07,25,01,58,13.10
2015,07,25,01,59,13.10
2015,07,25,02,00,13.20
2015,07,25,02,01,13.20
2015,07,25,02,02,13.20
2015,07,25,02,03,13.20
2015,07,25,02,04,13.20
2015,07,25,02,05,13.20
2015,07,25,02,06,13.20
2015,07,25,02,07,13.20
2015,07,25,02,08,13.20
2015,07,25,02,09,13.20
2015,07,25,02,10,13.20
2015,07,25,02,11,13.20
2015,07,25,02,12,13.10
2015,07,25,02,13,13.10
2015,07,25,02,14,13.10
2015,07,25,02,15,13.10
2015,07,25,02,16,13.10
2015,07,25,02,17,13.10
2015,07,25,02,18,13.10
2015,07,25,02,19,13.10
2015,07,25,02,20,13.10
2015,07,25,02,21,13.10
2015,07,25,02,22,13.10
2015,07,25,02,23,13.10
2015,07,25,02,24,13.10
2015,07,25,02,25,13.00
2015,07,25,02,26,13.00
2015,07,25,02,27,13.00
2015,07,25,02,28,13.00
2015,07,25,02,29,13.00
2015,07,25,02,30,13.00
2015,07,25,02,31,13.00
2015,07,25,02,32,13.00
2015,07,25,02,33,13.00
2015,07,25,02,34,13.00
2015,07,25,02,35,12.90
2015,07,25,02,36,12.90
2015,07,25,02,37,12.90
2015,07,25,02,38,12.90
2015,07,25,02,39,12.90
2015,07,25,02,40,12.90
2015,07,25,02,41,12.80
2015,07,25,02,42,12.80
2015,07,25,02,43,12.80
2015,07,25,02,44,12.80
2015,07,25,02,45,12.80
2015,07,25,02,46,12.80
2015,07,25,02,47,12.70
2015,07,25,02,48,12.70
2015,07,25,02,49,12.60
2015,07,25,02,50,12.60
2015,07,25,02,51,12.60
2015,07,25,02,52,12.50
2015,07,25,02,53,12.50
2015,07,25,02,54,12.50
2015,07,25,02,55,12.40
2015,07,25,02,56,12.40
2015,07,25,02,57,12.40
2015,07,25,02,58,12.40
2015,07,25,02,59,12.40
2015,07,25,03,00,12.40
2015,07,25,03,01,12.40
2015,07,25,03,02,12.40
2015,07,25,03,03,12.40
2015,07,25,03,04,12.40
2015,07,25,03,05,12.40
2015,07,25,03,06,12.30
2015,07,25,03,07,12.30
2015,07,25,03,08,12.30
2015,07,25,03,09,12.30
2015,07,25,03,10,12.30
2015,07,25,03,11,12.30
2015,07,25,03,12,12.30
2015,07,25,03,13,12.30
2015,07,25,03,14,12.30
2015,07,25,03,15,12.30
2015,07,25,03,16,12.30
2015,07,25,03,17,12.30
2015,07,25,03,18,12.30
2015,07,25,03,19,12.30
2015,07,25,03,20,12.30
2015,07,25,03,21,12.30
2015,07,25,03,22,12.30
2015,07,25,03,23,12.30
2015,07,25,03,24,12.30
2015,07,25,03,25,12.30
2015,07,25,03,26,12.30
2015,07,25,03,27,12.30
2015,07,25,03,28,12.30
2015,07,25,03,29,12.30
2015,07,25,03,30,12.30
2015,07,25,03,31,12.30
2015,07,25,03,32,12.30
2015,07,25,03,33,12.30
2015,07,25,03,34,12.40
2015,07,25,03,35,12.30
2015,07,25,03,36,12.40
2015,07,25,03,37,12.40
2015,07,25,03,38,12.40
2015,07,25,03,39,12.40
2015,07,25,03,40,12.40
2015,07,25,03,41,12.40
2015,07,25,03,42,12.40
2015,07,25,03,43,12.40
2015,07,25,03,44,12.40
2015,07,25,03,45,12.40
2015,07,25,03,46,12.40
2015,07,25,03,47,12.40
2015,07,25,03,48,12.40
2015,07,25,03,49,12.40
2015,07,25,03,50,12.40
2015,07,25,03,51,12.40
2015,07,25,03,52,12.40
2015,07,25,03,53,12.40
2015,07,25,03,54,12.40
2015,07,25,03,55,12.40
2015,07,25,03,56,12.50
2015,07,25,03,57,12.50
2015,07,25,03,58,12.50
2015,07,25,03,59,12.50
2015,07,25,04,00,12.50
2015,07,25,04,01,12.50
2015,07,25,04,02,12.50
2015,07,25,04,03,12.50
2015,07,25,04,04,12.60
2015,07,25,04,05,12.60
2015,07,25,04,06,12.60
2015,07,25,04,07,12.60
2015,07,25,04,08,12.60
2015,07,25,04,09,12.60
2015,07,25,04,10,12.70
2015,07,25,04,11,12.60
2015,07,25,04,12,12.60
2015,07,25,04,13,12.60
2015,07,25,04,14,12.60
2015,07,25,04,15,12.60
2015,07,25,04,16,12.60
2015,07,25,04,17,12.60
2015,07,25,04,18,12.60
2015,07,25,04,19,12.60
2015,07,25,04,20,12.60
2015,07,25,04,21,12.60
2015,07,25,04,22,12.50
2015,07,25,04,23,12.50
2015,07,25,04,24,12.50
2015,07,25,04,25,12.50
2015,07,25,04,26,12.50
2015,07,25,04,27,12.50
2015,07,25,04,28,12.50
2015,07,25,04,29,12.50
2015,07,25,04,30,12.50
2015,07,25,04,31,12.60
2015,07,25,04,32,12.60
2015,07,25,04,33,12.60
2015,07,25,04,34,12.60
2015,07,25,04,35,12.60
2015,07,25,04,36,12.70
2015,07,25,04,37,12.70
2015,07,25,04,38,12.70
2015,07,25,04,39,12.70
2015,07,25,04,40,12.70
2015,07,25,04,41,12.70
2015,07,25,04,42,12.70
2015,07,25,04,43,12.70
2015,07,25,04,44,12.70
2015,07,25,04,45,12.60
2015,07,25,04,46,12.60
2015,07,25,04,47,12.60
2015,07,25,04,48,12.60
2015,07,25,04,49,12.70
2015,07,25,04,50,12.70
2015,07,25,04,51,12.70
2015,07,25,04,52,12.70
2015,07,25,04,53,12.70
2015,07,25,04,54,12.70
2015,07,25,04,55,12.70
2015,07,25,04,56,12.70
2015,07,25,04,57,12.70
2015,07,25,04,58,12.60
2015,07,25,04,59,12.60
2015,07,25,05,00,12.60
2015,07,25,05,01,12.60
2015,07,25,05,02,12.60
2015,07,25,05,03,12.60
2015,07,25,05,04,12.60
2015,07,25,05,05,12.60
2015,07,25,05,06,12.60
2015,07,25,05,07,12.70
2015,07,25,05,08,12.70
2015,07,25,05,09,12.80
2015,07,25,05,10,12.80
2015,07,25,05,11,12.80
2015,07,25,05,12,12.80
2015,07,25,05,13,12.90
2015,07,25,05,14,12.90
2015,07,25,05,15,12.90
2015,07,25,05,16,13.00
2015,07,25,05,17,13.00
2015,07,25,05,18,13.10
2015,07,25,05,19,13.10
2015,07,25,05,20,13.10
2015,07,25,05,21,13.10
2015,07,25,05,22,13.10
2015,07,25,05,23,13.20
2015,07,25,05,24,13.20
2015,07,25,05,25,13.20
2015,07,25,05,26,13.20
2015,07,25,05,27,13.20
2015,07,25,05,28,13.20
2015,07,25,05,29,13.20
2015,07,25,05,30,13.20
2015,07,25,05,31,13.10
2015,07,25,05,32,13.10
2015,07,25,05,33,13.10
2015,07,25,05,34,13.00
2015,07,25,05,35,13.00
2015,07,25,05,36,12.90
2015,07,25,05,37,12.90
2015,07,25,05,38,12.90
2015,07,25,05,39,12.90
2015,07,25,05,40,12.90
2015,07,25,05,41,12.80
2015,07,25,05,42,12.80
2015,07,25,05,43,12.80
2015,07,25,05,44,12.80
2015,07,25,05,45,12.80
2015,07,25,05,46,12.80
2015,07,25,05,47,12.80
2015,07,25,05,48,12.80
2015,07,25,05,49,12.80
2015,07,25,05,50,12.80
2015,07,25,05,51,12.80
2015,07,25,05,52,12.90
2015,07,25,05,53,12.90
2015,07,25,05,54,12.90
2015,07,25,05,55,12.90
2015,07,25,05,56,13.00
2015,07,25,05,57,13.00
2015,07,25,05,58,13.00
2015,07,25,05,59,13.10
2015,07,25,06,00,13.10
2015,07,25,06,01,13.20
2015,07,25,06,02,13.20
2015,07,25,06,03,13.30
2015,07,25,06,04,13.30
2015,07,25,06,05,13.30
2015,07,25,06,06,13.40
2015,07,25,06,07,13.40
2015,07,25,06,08,13.40
2015,07,25,06,09,13.40
2015,07,25,06,10,13.40
2015,07,25,06,11,13.40
2015,07,25,06,12,13.40
2015,07,25,06,13,13.30
2015,07,25,06,14,13.30
2015,07,25,06,15,13.20
2015,07,25,06,16,13.20
2015,07,25,06,17,13.10
2015,07,25,06,18,13.10
2015,07,25,06,19,13.00
2015,07,25,06,20,13.00
2015,07,25,06,21,12.90
2015,07,25,06,22,12.90
2015,07,25,06,23,12.80
2015,07,25,06,24,12.80
2015,07,25,06,25,12.80
2015,07,25,06,26,12.70
2015,07,25,06,27,12.70
2015,07,25,06,28,12.70
2015,07,25,06,29,12.70
2015,07,25,06,30,12.60
2015,07,25,06,31,12.60
2015,07,25,06,32,12.60
2015,07,25,06,33,12.60
2015,07,25,06,34,12.60
2015,07,25,06,35,12.60
2015,07,25,06,36,12.60
2015,07,25,06,37,12.60
2015,07,25,06,38,12.60
2015,07,25,06,39,12.60
2015,07,25,06,40,12.60
2015,07,25,06,41,12.60
2015,07,25,06,42,12.60
2015,07,25,06,43,12.60
2015,07,25,06,44,12.70
2015,07,25,06,45,12.70
2015,07,25,06,46,12.80
2015,07,25,06,47,12.90
2015,07,25,06,48,12.90
2015,07,25,06,49,13.00
2015,07,25,06,50,13.10
2015,07,25,06,51,13.10
2015,07,25,06,52,13.20
2015,07,25,06,53,13.20
2015,07,25,06,54,13.30
2015,07,25,06,55,13.30
2015,07,25,06,56,13.30
2015,07,25,06,57,13.30
2015,07,25,06,58,13.30
2015,07,25,06,59,13.30
2015,07,25,07,00,13.30
2015,07,25,07,01,13.30
2015,07,25,07,02,13.40
2015,07,25,07,03,13.40
2015,07,25,07,04,13.40
2015,07,25,07,05,13.50
2015,07,25,07,06,13.50
2015,07,25,07,07,13.50
2015,07,25,07,08,13.60
2015,07,25,07,09,13.60
2015,07,25,07,10,13.60
2015,07,25,07,11,13.60
2015,07,25,07,12,13.70
2015,07,25,07,13,13.80
2015,07,25,07,14,13.80
2015,07,25,07,15,13.80
2015,07,25,07,16,13.90
2015,07,25,07,17,13.90
2015,07,25,07,18,14.00
2015,07,25,07,19,14.00
2015,07,25,07,20,14.00
2015,07,25,07,21,14.10
2015,07,25,07,22,14.10
2015,07,25,07,23,14.10
2015,07,25,07,24,14.10
2015,07,25,07,25,14.20
2015,07,25,07,26,14.20
2015,07,25,07,27,14.20
2015,07,25,07,28,14.20
2015,07,25,07,29,14.20
2015,07,25,07,30,14.30
2015,07,25,07,31,14.30
2015,07,25,07,32,14.30
2015,07,25,07,33,14.30
2015,07,25,07,34,14.40
2015,07,25,07,35,14.50
2015,07,25,07,36,14.50
2015,07,25,07,37,14.60
2015,07,25,07,38,14.70
2015,07,25,07,39,14.90
2015,07,25,07,40,15.00
2015,07,25,07,41,15.00
2015,07,25,07,42,15.10
2015,07,25,07,43,15.30
2015,07,25,07,44,15.40
2015,07,25,07,45,15.50
2015,07,25,07,46,15.60
2015,07,25,07,47,15.70
2015,07,25,07,48,15.90
2015,07,25,07,49,16.00
2015,07,25,07,50,16.10
2015,07,25,07,51,16.20
2015,07,25,07,52,16.30
2015,07,25,07,53,16.40
2015,07,25,07,54,16.50
2015,07,25,07,55,16.60
2015,07,25,07,56,16.70
2015,07,25,07,57,16.80
2015,07,25,07,58,16.80
2015,07,25,07,59,16.80
2015,07,25,08,00,16.80
2015,07,25,08,01,16.80
2015,07,25,08,02,16.80
2015,07,25,08,03,16.80
2015,07,25,08,04,16.80
2015,07,25,08,05,16.90
2015,07,25,08,06,16.90
2015,07,25,08,07,17.00
2015,07,25,08,08,17.00
2015,07,25,08,09,17.10
2015,07,25,08,10,17.10
2015,07,25,08,11,17.20
2015,07,25,08,12,17.20
2015,07,25,08,13,17.20
2015,07,25,08,14,17.30
2015,07,25,08,15,17.30
2015,07,25,08,16,17.40
2015,07,25,08,17,17.50
2015,07,25,08,18,17.50
2015,07,25,08,19,17.60
2015,07,25,08,20,17.60
2015,07,25,08,21,17.70
2015,07,25,08,22,17.70
2015,07,25,08,23,17.70
2015,07,25,08,24,17.80
2015,07,25,08,25,17.80
2015,07,25,08,26,17.90
2015,07,25,08,27,18.00
2015,07,25,08,28,18.00
2015,07,25,08,29,18.00
2015,07,25,08,30,17.90
2015,07,25,08,31,17.90
2015,07,25,08,32,17.80
2015,07,25,08,33,17.80
2015,07,25,08,34,17.80
2015,07,25,08,35,17.80
2015,07,25,08,36,17.80
2015,07,25,08,37,17.90
2015,07,25,08,38,18.00
2015,07,25,08,39,18.20
2015,07,25,08,40,18.30
2015,07,25,08,41,18.40
2015,07,25,08,42,18.50
2015,07,25,08,43,18.60
2015,07,25,08,44,18.60
2015,07,25,08,45,18.70
2015,07,25,08,46,18.70
2015,07,25,08,47,18.80
2015,07,25,08,48,18.80
2015,07,25,08,49,18.90
2015,07,25,08,50,18.90
2015,07,25,08,51,18.90
2015,07,25,08,52,19.00
2015,07,25,08,53,19.10
2015,07,25,08,54,19.10
2015,07,25,08,55,19.20
2015,07,25,08,56,19.30
2015,07,25,08,57,19.20
2015,07,25,08,58,19.20
2015,07,25,08,59,19.20
2015,07,25,09,00,19.10
2015,07,25,09,01,19.00
2015,07,25,09,02,18.90
2015,07,25,09,03,18.90
2015,07,25,09,04,18.80
2015,07,25,09,05,18.80
2015,07,25,09,06,18.80
2015,07,25,09,07,18.80
2015,07,25,09,08,18.80
2015,07,25,09,09,18.80
2015,07,25,09,10,18.80
2015,07,25,09,11,18.70
2015,07,25,09,12,18.70
2015,07,25,09,13,18.70
2015,07,25,09,14,18.70
2015,07,25,09,15,18.70
2015,07,25,09,16,18.70
2015,07,25,09,17,18.80
2015,07,25,09,18,18.80
2015,07,25,09,19,18.70
2015,07,25,09,20,18.70
2015,07,25,09,21,18.70
2015,07,25,09,22,18.70
2015,07,25,09,23,18.70
2015,07,25,09,24,18.70
2015,07,25,09,25,18.70
2015,07,25,09,26,18.70
2015,07,25,09,27,18.60
2015,07,25,09,28,18.60
2015,07,25,09,29,18.60
2015,07,25,09,30,18.60
2015,07,25,09,31,18.60
2015,07,25,09,32,18.60
2015,07,25,09,33,18.60
2015,07,25,09,34,18.60
2015,07,25,09,35,18.60
2015,07,25,09,36,18.60
2015,07,25,09,37,18.60
2015,07,25,09,38,18.60
2015,07,25,09,39,18.60
2015,07,25,09,40,18.60
2015,07,25,09,41,18.50
2015,07,25,09,42,18.50
2015,07,25,09,43,18.40
2015,07,25,09,44,18.40
2015,07,25,09,45,18.40
2015,07,25,09,46,18.30
2015,07,25,09,47,18.30
2015,07,25,09,48,18.30
2015,07,25,09,49,18.30
2015,07,25,09,50,18.30
2015,07,25,09,51,18.30
2015,07,25,09,52,18.30
2015,07,25,09,53,18.30
2015,07,25,09,54,18.30
2015,07,25,09,55,18.40
2015,07,25,09,56,18.50
2015,07,25,09,57,18.50
2015,07,25,09,58,18.60
2015,07,25,09,59,18.60
2015,07,25,10,00,18.50
2015,07,25,10,01,18.50
2015,07,25,10,02,18.50
2015,07,25,10,03,18.40
2015,07,25,10,04,18.40
2015,07,25,10,05,18.30
2015,07,25,10,06,18.10
2015,07,25,10,07,18.00
2015,07,25,10,08,17.90
2015,07,25,10,09,17.80
2015,07,25,10,10,17.80
2015,07,25,10,11,17.80
2015,07,25,10,12,17.80
2015,07,25,10,13,17.90
2015,07,25,10,14,17.90
2015,07,25,10,15,17.90
2015,07,25,10,16,17.90
2015,07,25,10,17,17.90
2015,07,25,10,18,17.90
2015,07,25,10,19,17.90
2015,07,25,10,20,17.90
2015,07,25,10,21,17.90
2015,07,25,10,22,17.90
2015,07,25,10,23,17.90
2015,07,25,10,24,17.90
2015,07,25,10,25,18.00
2015,07,25,10,26,18.00
2015,07,25,10,27,18.10
2015,07,25,10,28,18.20
2015,07,25,10,29,18.30
2015,07,25,10,30,18.40
2015,07,25,10,31,18.50
2015,07,25,10,32,18.70
2015,07,25,10,33,18.80
2015,07,25,10,34,19.10
2015,07,25,10,35,19.20
2015,07,25,10,36,19.40
2015,07,25,10,37,19.50
2015,07,25,10,38,19.60
2015,07,25,10,39,19.60
2015,07,25,10,40,19.50
2015,07,25,10,41,19.30
2015,07,25,10,42,19.10
2015,07,25,10,43,18.90
2015,07,25,10,44,18.80
2015,07,25,10,45,18.60
2015,07,25,10,46,18.50
2015,07,25,10,47,18.30
2015,07,25,10,48,18.20
2015,07,25,10,49,18.10
2015,07,25,10,50,18.10
2015,07,25,10,51,18.10
2015,07,25,10,52,18.00
2015,07,25,10,53,18.00
2015,07,25,10,54,18.00
2015,07,25,10,55,17.90
2015,07,25,10,56,17.90
2015,07,25,10,57,18.00
2015,07,25,10,58,18.00
2015,07,25,10,59,18.00
2015,07,25,11,00,18.10
2015,07,25,11,01,18.20
2015,07,25,11,02,18.30
2015,07,25,11,03,18.50
2015,07,25,11,04,18.60
2015,07,25,11,05,18.80
2015,07,25,11,06,18.90
2015,07,25,11,07,19.10
2015,07,25,11,08,19.20
2015,07,25,11,09,19.40
2015,07,25,11,10,19.50
2015,07,25,11,11,19.70
2015,07,25,11,12,20.00
2015,07,25,11,13,20.20
2015,07,25,11,14,20.30
2015,07,25,11,15,20.40
2015,07,25,11,16,20.50
2015,07,25,11,17,20.50
2015,07,25,11,18,20.40
2015,07,25,11,19,20.10
2015,07,25,11,20,20.00
2015,07,25,11,21,19.90
2015,07,25,11,22,19.90
2015,07,25,11,23,19.90
2015,07,25,11,24,19.90
2015,07,25,11,25,19.80
2015,07,25,11,26,19.70
2015,07,25,11,27,19.50
2015,07,25,11,28,19.40
2015,07,25,11,29,19.30
2015,07,25,11,30,19.20
2015,07,25,11,31,19.20
2015,07,25,11,32,19.20
2015,07,25,11,33,19.00
2015,07,25,11,34,18.90
2015,07,25,11,35,18.90
2015,07,25,11,36,18.90
2015,07,25,11,37,18.90
2015,07,25,11,38,18.90
2015,07,25,11,39,18.90
2015,07,25,11,40,18.90
2015,07,25,11,41,18.90
2015,07,25,11,42,18.90
2015,07,25,11,43,18.80
2015,07,25,11,44,18.70
2015,07,25,11,45,18.70
2015,07,25,11,46,18.60
2015,07,25,11,47,18.60
2015,07,25,11,48,18.60
2015,07,25,11,49,18.60
2015,07,25,11,50,18.60
2015,07,25,11,51,18.60
2015,07,25,11,52,18.60
2015,07,25,11,53,18.60
2015,07,25,11,54,18.50
2015,07,25,11,55,18.50
2015,07,25,11,56,18.40
2015,07,25,11,57,18.40
2015,07,25,11,58,18.30
2015,07,25,11,59,18.20
2015,07,25,12,00,18.20
2015,07,25,12,01,18.10
2015,07,25,12,02,18.10
2015,07,25,12,03,18.10
2015,07,25,12,04,18.00
2015,07,25,12,05,18.00
2015,07,25,12,06,17.90
2015,07,25,12,07,17.90
2015,07,25,12,08,17.90
2015,07,25,12,09,18.00
2015,07,25,12,10,18.00
2015,07,25,12,11,18.10
2015,07,25,12,12,18.10
2015,07,25,12,13,18.10
2015,07,25,12,14,18.10
2015,07,25,12,15,18.10
2015,07,25,12,16,18.10
2015,07,25,12,17,18.20
2015,07,25,12,18,18.20
2015,07,25,12,19,18.20
2015,07,25,12,20,18.20
2015,07,25,12,21,18.20
2015,07,25,12,22,18.20
2015,07,25,12,23,18.20
2015,07,25,12,24,18.30
2015,07,25,12,25,18.30
2015,07,25,12,26,18.40
2015,07,25,12,27,18.40
2015,07,25,12,28,18.50
2015,07,25,12,29,18.50
2015,07,25,12,30,18.60
2015,07,25,12,31,18.70
2015,07,25,12,32,18.80
2015,07,25,12,33,18.80
2015,07,25,12,34,18.80
2015,07,25,12,35,18.80
2015,07,25,12,36,18.80
2015,07,25,12,37,18.70
2015,07,25,12,38,18.70
2015,07,25,12,39,18.80
2015,07,25,12,40,18.80
2015,07,25,12,41,18.80
2015,07,25,12,42,18.90
2015,07,25,12,43,18.90
2015,07,25,12,44,18.90
2015,07,25,12,45,18.70
2015,07,25,12,46,18.60
2015,07,25,12,47,18.50
2015,07,25,12,48,18.40
2015,07,25,12,49,18.30
2015,07,25,12,50,18.20
2015,07,25,12,51,18.10
2015,07,25,12,52,18.10
2015,07,25,12,53,18.10
2015,07,25,12,54,18.00
2015,07,25,12,55,18.00
2015,07,25,12,56,18.00
2015,07,25,12,57,18.00
2015,07,25,12,58,18.00
2015,07,25,12,59,17.90
2015,07,25,13,00,17.90
2015,07,25,13,01,17.90
2015,07,25,13,02,17.90
2015,07,25,13,03,17.90
2015,07,25,13,04,17.90
2015,07,25,13,05,17.90
2015,07,25,13,06,17.90
2015,07,25,13,07,17.90
2015,07,25,13,08,17.90
2015,07,25,13,09,18.00
2015,07,25,13,10,18.00
2015,07,25,13,11,18.00
2015,07,25,13,12,18.10
2015,07,25,13,13,18.10
2015,07,25,13,14,18.20
2015,07,25,13,15,18.20
2015,07,25,13,16,18.30
2015,07,25,13,17,18.30
2015,07,25,13,18,18.40
2015,07,25,13,19,18.40
2015,07,25,13,20,18.50
2015,07,25,13,21,18.50
2015,07,25,13,22,18.50
2015,07,25,13,23,18.50
2015,07,25,13,24,18.50
2015,07,25,13,25,18.50
2015,07,25,13,26,18.50
2015,07,25,13,27,18.50
2015,07,25,13,28,18.60
2015,07,25,13,29,18.60
2015,07,25,13,30,18.70
2015,07,25,13,31,18.70
2015,07,25,13,32,18.80
2015,07,25,13,33,18.80
2015,07,25,13,34,18.80
2015,07,25,13,35,18.80
2015,07,25,13,36,18.80
2015,07,25,13,37,18.80
2015,07,25,13,38,18.80
2015,07,25,13,39,18.80
2015,07,25,13,40,18.90
2015,07,25,13,41,18.90
2015,07,25,13,42,18.90
2015,07,25,13,43,18.90
2015,07,25,13,44,19.00
2015,07,25,13,45,19.00
2015,07,25,13,46,18.90
2015,07,25,13,47,18.90
2015,07,25,13,48,19.00
2015,07,25,13,49,18.90
2015,07,25,13,50,19.00
2015,07,25,13,51,19.00
2015,07,25,13,52,19.00
2015,07,25,13,53,19.10
2015,07,25,13,54,19.10
2015,07,25,13,55,19.10
2015,07,25,13,56,19.10
2015,07,25,13,57,19.10
2015,07,25,13,58,19.10
2015,07,25,13,59,19.10
2015,07,25,14,00,19.00
2015,07,25,14,01,19.10
2015,07,25,14,02,19.10
2015,07,25,14,03,19.10
2015,07,25,14,04,19.10
2015,07,25,14,05,19.00
2015,07,25,14,06,19.00
2015,07,25,14,07,18.90
2015,07,25,14,08,18.90
2015,07,25,14,09,18.90
2015,07,25,14,10,18.90
2015,07,25,14,11,18.90
2015,07,25,14,12,18.90
2015,07,25,14,13,19.00
2015,07,25,14,14,19.00
2015,07,25,14,15,19.00
2015,07,25,14,16,19.10
2015,07,25,14,17,19.10
2015,07,25,14,18,19.10
2015,07,25,14,19,19.00
2015,07,25,14,20,18.90
2015,07,25,14,21,18.80
2015,07,25,14,22,18.70
2015,07,25,14,23,18.70
2015,07,25,14,24,18.70
2015,07,25,14,25,18.60
2015,07,25,14,26,18.60
2015,07,25,14,27,18.50
2015,07,25,14,28,18.30
2015,07,25,14,29,18.20
2015,07,25,14,30,18.10
2015,07,25,14,31,18.00
2015,07,25,14,32,18.00
2015,07,25,14,33,18.00
2015,07,25,14,34,18.00
2015,07,25,14,35,18.00
2015,07,25,14,36,18.00
2015,07,25,14,37,18.00
2015,07,25,14,38,18.10
2015,07,25,14,39,18.20
2015,07,25,14,40,18.20
2015,07,25,14,41,18.20
2015,07,25,14,42,18.20
2015,07,25,14,43,18.30
2015,07,25,14,44,18.40
2015,07,25,14,45,18.40
2015,07,25,14,46,18.50
2015,07,25,14,47,18.60
2015,07,25,14,48,18.60
2015,07,25,14,49,18.60
2015,07,25,14,50,18.60
2015,07,25,14,51,18.50
2015,07,25,14,52,18.50
2015,07,25,14,53,18.40
2015,07,25,14,54,18.40
2015,07,25,14,55,18.40
2015,07,25,14,56,18.40
2015,07,25,14,57,18.40
2015,07,25,14,58,18.50
2015,07,25,14,59,18.50
2015,07,25,15,00,18.60
2015,07,25,15,01,18.70
2015,07,25,15,02,18.80
2015,07,25,15,03,18.80
2015,07,25,15,04,18.80
2015,07,25,15,05,18.80
2015,07,25,15,06,18.90
2015,07,25,15,07,18.90
2015,07,25,15,08,18.90
2015,07,25,15,09,19.00
2015,07,25,15,10,19.00
2015,07,25,15,11,19.10
2015,07,25,15,12,19.10
2015,07,25,15,13,19.20
2015,07,25,15,14,19.30
2015,07,25,15,15,19.40
2015,07,25,15,16,19.50
2015,07,25,15,17,19.50
2015,07,25,15,18,19.50
2015,07,25,15,19,19.50
2015,07,25,15,20,19.50
2015,07,25,15,21,19.50
2015,07,25,15,22,19.50
2015,07,25,15,23,19.60
2015,07,25,15,24,19.60
2015,07,25,15,25,19.60
2015,07,25,15,26,19.60
2015,07,25,15,27,19.70
2015,07,25,15,28,19.70
2015,07,25,15,29,19.80
2015,07,25,15,30,19.90
2015,07,25,15,31,19.90
2015,07,25,15,32,20.00
2015,07,25,15,33,20.10
2015,07,25,15,34,20.10
2015,07,25,15,35,20.10
2015,07,25,15,36,20.10
2015,07,25,15,37,20.20
2015,07,25,15,38,20.20
2015,07,25,15,39,20.30
2015,07,25,15,40,20.30
2015,07,25,15,41,20.30
2015,07,25,15,42,20.30
2015,07,25,15,43,20.20
2015,07,25,15,44,19.90
2015,07,25,15,45,19.70
2015,07,25,15,46,19.60
2015,07,25,15,47,19.40
2015,07,25,15,48,19.30
2015,07,25,15,49,19.30
2015,07,25,15,50,19.20
2015,07,25,15,51,19.20
2015,07,25,15,52,19.20
2015,07,25,15,53,19.20
2015,07,25,15,54,19.10
2015,07,25,15,55,19.10
2015,07,25,15,56,19.10
2015,07,25,15,57,19.10
2015,07,25,15,58,19.10
2015,07,25,15,59,19.10
2015,07,25,16,00,19.10
2015,07,25,16,01,19.00
2015,07,25,16,02,19.00
2015,07,25,16,03,19.00
2015,07,25,16,04,19.10
2015,07,25,16,05,19.00
2015,07,25,16,06,19.00
2015,07,25,16,07,19.00
2015,07,25,16,08,19.00
2015,07,25,16,09,19.00
2015,07,25,16,10,19.00
2015,07,25,16,11,19.00
2015,07,25,16,12,19.10
2015,07,25,16,13,19.10
2015,07,25,16,14,19.20
2015,07,25,16,15,19.20
2015,07,25,16,16,19.20
2015,07,25,16,17,19.30
2015,07,25,16,18,19.30
2015,07,25,16,19,19.30
2015,07,25,16,20,19.40
2015,07,25,16,21,19.50
2015,07,25,16,22,19.50
2015,07,25,16,23,19.60
2015,07,25,16,24,19.70
2015,07,25,16,25,19.70
2015,07,25,16,26,19.70
2015,07,25,16,27,19.70
2015,07,25,16,28,19.70
2015,07,25,16,29,19.70
2015,07,25,16,30,19.70
2015,07,25,16,31,19.70
2015,07,25,16,32,19.70
2015,07,25,16,33,19.80
2015,07,25,16,34,19.80
2015,07,25,16,35,19.90
2015,07,25,16,36,19.90
2015,07,25,16,37,19.90
2015,07,25,16,38,19.90
2015,07,25,16,39,19.90
2015,07,25,16,40,19.90
2015,07,25,16,41,19.90
2015,07,25,16,42,19.90
2015,07,25,16,43,19.90
2015,07,25,16,44,20.00
2015,07,25,16,45,20.10
2015,07,25,16,46,20.20
2015,07,25,16,47,20.30
2015,07,25,16,48,20.50
2015,07,25,16,49,20.60
2015,07,25,16,50,20.60
2015,07,25,16,51,20.60
2015,07,25,16,52,20.60
2015,07,25,16,53,20.60
2015,07,25,16,54,20.60
2015,07,25,16,55,20.60
2015,07,25,16,56,20.60
2015,07,25,16,57,20.60
2015,07,25,16,58,20.50
2015,07,25,16,59,20.60
2015,07,25,17,00,20.60
2015,07,25,17,01,20.60
2015,07,25,17,02,20.60
2015,07,25,17,03,20.60
2015,07,25,17,04,20.60
2015,07,25,17,05,20.60
2015,07,25,17,06,20.60
2015,07,25,17,07,20.50
2015,07,25,17,08,20.50
2015,07,25,17,09,20.40
2015,07,25,17,10,20.30
2015,07,25,17,11,20.20
2015,07,25,17,12,20.20
2015,07,25,17,13,20.10
2015,07,25,17,14,20.10
2015,07,25,17,15,20.10
2015,07,25,17,16,20.10
2015,07,25,17,17,20.00
2015,07,25,17,18,20.00
2015,07,25,17,19,19.90